Tracking 29528 objects as of 13-Sep-2024
HD Live streaming from Space Station
objects crossing your sky now

ECHOSTAR 6

Track ECHOSTAR 6 now!
ECHOSTAR 6 is classified as:


NORAD ID: 26402
Int'l Code: 2000-038A
Perigee: 36,210.5 km
Apogee: 36,216.7 km
Inclination: 9.5 °
Period: 1,457.6 minutes
Semi major axis: 42584 km
RCS: 25.1188 m2 (large)
Launch date: July 14, 2000
Source: United States (US)
Launch site: AIR FORCE EASTERN TEST RANGE (AFETR)

CONUS, Hawaii, Alaska and Puerto Rico; 32 Ku-band transponders
Your satellite tracking list
Your tracking list is empty




NASA's NSSDC Master Catalog

Two Line Element Set (TLE):
1 26402U 00038A   24256.69133087 -.00000190  00000-0  00000-0 0  9992
2 26402   9.4874  52.0356 0000726 142.0475 224.8289  0.98792665 88167
Source of the keplerian elements: AFSPC